Weather History for Ravenna, OH

Change the Weather History Date:

Monday, December 10, 2012

  Actual Average (KCAK) Record (KCAK)
Temperature  
Mean Temperature 44 °F 32 °F  
Max Temperature 55 °F 39 °F 67 °F (1971)
Min Temperature 33 °F 26 °F -11 °F (1958)
Degree Days  
Heating Degree Days 21 33  
Month to date heating degree days 314  
Since 1 July heating degree days 1573  
Cooling Degree Days 0 0  
Month to date cooling degree days 0  
Year to date cooling degree days 652  
Moisture  
Dew Point 43 °F    
Average Humidity 97    
Maximum Humidity 100    
Minimum Humidity 85    
Precipitation  
Precipitation 0.37 in 0.10 in 0.77 in (1997)
Month to date precipitation 0.99  
Year to date precipitation 37.77  
Snow  
Snow 0.00 in 0.30 in - ()
Month to date snowfall 2.8  
Since 1 July snowfall 6.2  
Snow Depth -    
Sea Level Pressure  
Sea Level Pressure 29.66 in    
Wind  
Wind Speed 6 mph (West)    
Max Wind Speed 17 mph    
Max Gust Speed 24 mph    
Visibility 7 miles    
Events Rain    
T = Trace of Precipitation, MM = Missing Value Source: NWS Daily Summary

Daily Weather History Graph

Daily Weather History Graph

Search for Another Location

Airport:

Trip Planner

Search our weather history database for the weather conditions in past years. The results will help you decide how hot, cold, wet, or windy it might be!

Date:

Astronomy

Dec. 10, 2012 Rise Set
Actual Time 7:39 AM EST 4:56 PM EST
Civil Twilight 7:08 AM EST 5:27 PM EST
Nautical Twilight 6:34 AM EST 6:01 PM EST
Astronomical Twilight 6:00 AM EST 6:35 PM EST
Moon 4:20 AM EST (12/10) 2:45 PM EST (12/10)
Length of Visible Light 10h 18m
Length of Day
9h 16m
Waning Crescent, 10% of the Moon is Illuminated
Dec 10
Waning Crescent
Dec 13
New
Dec 20
First Quarter
Dec 28
Full
Jan 4
Last Quarter

Hourly Weather History & Observations

Time (EST) Temp. Windchill Dew Point Humidity Pressure Visibility Wind Dir Wind Speed Gust Speed Precip Events Conditions
12:15 AM 54.9 °F - 55.0 °F 100% 29.68 in 7.0 mi South 4.6 mph - 0.02 in Rain Light Rain
12:35 AM 54.7 °F - 54.9 °F 100% 29.67 in 5.0 mi Calm Calm - 0.05 in Rain Rain
12:55 AM 54.5 °F - 54.5 °F 100% 29.66 in 4.0 mi South 3.5 mph - 0.09 in Rain Rain
1:15 AM 54.7 °F - 54.9 °F 100% 29.65 in 7.0 mi Calm Calm - 0.07 in Rain Rain
1:35 AM 54.9 °F - 55.0 °F 100% 29.64 in 5.0 mi Calm Calm - 0.11 in Rain Rain
1:55 AM 55.4 °F - 55.4 °F 100% 29.63 in 7.0 mi SW 6.9 mph - 0.15 in Rain Rain
2:15 AM 55.4 °F - 55.4 °F 100% 29.61 in 7.0 mi SSW 3.5 mph - 0.03 in Rain Rain
2:35 AM 54.9 °F - 55.0 °F 100% 29.61 in 10.0 mi Calm Calm - 0.04 in Rain Light Rain
2:55 AM 54.7 °F - 54.9 °F 100% 29.61 in 10.0 mi SSW 3.5 mph - 0.04 in   Overcast
3:15 AM 54.5 °F - 54.5 °F 100% 29.61 in 10.0 mi SSW 3.5 mph - N/A   Overcast
3:55 AM 53.8 °F - 54.0 °F 100% 29.61 in 10.0 mi SW 6.9 mph - N/A   Overcast
4:15 AM 54.0 °F - 54.0 °F 100% 29.60 in 10.0 mi SW 4.6 mph - N/A   Overcast
4:35 AM 53.6 °F - 53.8 °F 100% 29.59 in 5.0 mi SW 6.9 mph - N/A   Drizzle
4:55 AM 53.2 °F - 53.6 °F 100% 29.60 in 4.0 mi SW 6.9 mph - N/A   Drizzle
5:15 AM 53.1 °F - 53.4 °F 100% 29.59 in 5.0 mi SW 6.9 mph - N/A   Drizzle
5:35 AM 53.1 °F - 53.2 °F 100% 29.60 in 4.0 mi SW 8.1 mph - N/A   Light Drizzle
5:55 AM 51.4 °F - 51.6 °F 100% 29.61 in 4.0 mi WNW 11.5 mph 17.3 mph 0.01 in   Heavy Drizzle
6:15 AM 48.2 °F - 48.4 °F 100% 29.61 in 5.0 mi WNW 6.9 mph - N/A   Drizzle
6:35 AM 47.3 °F - 47.5 °F 100% 29.61 in 3.0 mi WNW 4.6 mph - N/A   Drizzle
6:55 AM - - - N/A% 29.61 in 3.0 mi WNW 6.9 mph - 0.01 in   Drizzle
7:15 AM 46.8 °F - 46.9 °F 100% 29.61 in 4.0 mi West 9.2 mph - N/A   Light Drizzle
7:35 AM 47.3 °F - 47.3 °F 100% 29.62 in 7.0 mi West 5.8 mph - N/A Rain Rain
7:54 AM 47.3 °F - 47.5 °F 100% 29.63 in 7.0 mi West 6.9 mph - N/A   Overcast
8:15 AM 47.3 °F - 47.3 °F 100% 29.63 in 5.0 mi West 9.2 mph - N/A Rain Light Rain
8:35 AM 46.8 °F - 46.9 °F 100% 29.63 in 5.0 mi West 8.1 mph - N/A Rain Rain
8:55 AM 46.6 °F - 46.8 °F 100% 29.63 in 5.0 mi West 6.9 mph - N/A   Drizzle
9:15 AM 46.4 °F 43.5 °F 46.6 °F 100% 29.64 in 5.0 mi West 5.8 mph - 0.01 in Rain Rain
9:35 AM 46.2 °F 42.7 °F 46.2 °F 100% 29.65 in 5.0 mi WNW 6.9 mph - 0.02 in Rain Rain
9:55 AM 44.6 °F 41.4 °F 44.8 °F 100% 29.64 in 4.0 mi NW 5.8 mph - 0.02 in   Drizzle
10:15 AM 43.9 °F 40.5 °F 44.1 °F 100% 29.64 in 4.0 mi NNW 5.8 mph - N/A   Light Drizzle
10:35 AM 43.7 °F 41.1 °F 43.9 °F 100% 29.63 in 2.0 mi NW 4.6 mph - N/A   Light Drizzle
10:55 AM - - - N/A% 29.64 in 2.0 mi NW 4.6 mph - N/A   Light Drizzle
11:15 AM - - - N/A% 29.63 in 1.5 mi NW 4.6 mph - N/A   Overcast
11:35 AM 43.0 °F 39.5 °F 43.2 °F 100% 29.62 in 1.8 mi NW 5.8 mph - N/A   Light Drizzle
11:54 AM 42.3 °F 38.6 °F 42.4 °F 100% 29.61 in 2.5 mi NW 5.8 mph - 0.01 in   Light Drizzle
12:15 PM 41.9 °F 38.2 °F 41.9 °F 100% 29.60 in 2.0 mi NW 5.8 mph - N/A   Overcast
12:35 PM 41.4 °F 34.7 °F 41.7 °F 100% 29.61 in 2.0 mi WNW 11.5 mph 17.3 mph N/A   Overcast
12:54 PM - - - N/A% 29.62 in 0.5 mi West 16.1 mph - N/A   Light Drizzle
1:15 PM 39.2 °F 30.2 °F 39.2 °F 100% 29.63 in 7.0 mi WNW 17.3 mph 24.2 mph N/A   Overcast
1:35 PM 38.5 °F 29.9 °F 38.7 °F 100% 29.63 in 5.0 mi West 15.0 mph 20.7 mph N/A Rain Light Rain
1:55 PM 38.3 °F 31.4 °F 38.5 °F 100% 29.63 in 7.0 mi West 10.4 mph - N/A Rain Light Rain
2:15 PM 38.3 °F 31.9 °F 37.6 °F 97% 29.63 in 10.0 mi West 9.2 mph - N/A   Overcast
2:35 PM 38.3 °F 31.9 °F 36.0 °F 91% 29.63 in 10.0 mi West 9.2 mph - N/A   Overcast
2:55 PM 38.3 °F 33.2 °F 35.4 °F 89% 29.63 in 10.0 mi West 6.9 mph - N/A   Overcast
3:15 PM 38.3 °F 31.9 °F 35.6 °F 90% 29.64 in 10.0 mi West 9.2 mph - N/A   Overcast
3:35 PM 38.3 °F 33.2 °F 35.6 °F 90% 29.64 in 10.0 mi West 6.9 mph - N/A   Overcast
3:55 PM 38.3 °F 31.9 °F 34.7 °F 87% 29.65 in 10.0 mi WNW 9.2 mph - N/A   Overcast
4:15 PM 38.3 °F 33.9 °F 34.3 °F 86% 29.65 in 10.0 mi WNW 5.8 mph - N/A   Overcast
4:35 PM 38.3 °F 34.8 °F 34.7 °F 87% 29.67 in 10.0 mi West 4.6 mph - N/A   Overcast
4:54 PM 37.9 °F 32.7 °F 34.2 °F 86% 29.68 in 10.0 mi West 6.9 mph - N/A   Overcast
5:15 PM 37.9 °F 32.7 °F 34.2 °F 86% 29.68 in 10.0 mi WNW 6.9 mph - N/A   Overcast
5:35 PM 37.9 °F 32.1 °F 33.8 °F 85% 29.69 in 10.0 mi West 8.1 mph - N/A   Overcast
5:55 PM 37.8 °F 32.5 °F 33.8 °F 86% 29.68 in 10.0 mi West 6.9 mph - N/A   Drizzle
6:15 PM 37.4 °F 29.8 °F 33.6 °F 86% 29.71 in 10.0 mi West 11.5 mph - N/A Rain Light Rain
6:35 PM 36.7 °F 30.5 °F 34.0 °F 90% 29.70 in 10.0 mi West 8.1 mph - N/A Rain Light Rain
6:55 PM 36.5 °F 33.9 °F 35.6 °F 97% 29.70 in 10.0 mi West 3.5 mph - N/A   Light Drizzle
7:15 PM - - - N/A% 29.70 in 10.0 mi Calm Calm - 0.01 in Rain Light Rain
7:35 PM 36.5 °F 33.9 °F 36.5 °F 100% 29.71 in 10.0 mi SW 3.5 mph - 0.01 in   Light Drizzle
7:55 PM 36.5 °F - 36.7 °F 100% 29.72 in 10.0 mi Calm Calm - 0.01 in   Overcast
8:15 PM 36.5 °F 33.9 °F 36.7 °F 100% 29.72 in 10.0 mi WSW 3.5 mph - N/A   Overcast
8:35 PM 36.5 °F 32.7 °F 36.7 °F 100% 29.72 in 10.0 mi WSW 4.6 mph - N/A   Light Drizzle
8:55 PM 36.7 °F 32.0 °F 36.9 °F 100% 29.73 in 7.0 mi WSW 5.8 mph - N/A   Drizzle
9:15 PM 36.5 °F 28.7 °F 36.7 °F 100% 29.72 in 7.0 mi West 11.5 mph 16.1 mph N/A   Drizzle
9:35 PM 35.2 °F 28.8 °F 35.4 °F 100% 29.74 in 7.0 mi WNW 8.1 mph - 0.01 in Rain Light Rain
9:55 PM 34.9 °F 28.3 °F 35.1 °F 100% 29.75 in 5.0 mi West 8.1 mph - 0.01 in Rain Rain
10:15 PM 33.8 °F 27.7 °F 33.8 °F 100% 29.77 in 4.0 mi West 6.9 mph - 0.01 in Rain Light Rain
10:35 PM 33.8 °F 27.7 °F 33.8 °F 100% 29.78 in 5.0 mi West 6.9 mph - 0.01 in Rain Light Rain
10:55 PM 33.4 °F 25.9 °F 33.6 °F 100% 29.79 in 4.0 mi WNW 9.2 mph - 0.01 in Rain Light Rain
11:15 PM 33.4 °F 25.9 °F 33.6 °F 100% 29.80 in 5.0 mi NW 9.2 mph - 0.01 in Rain Light Rain
11:35 PM 33.3 °F 27.1 °F 33.4 °F 100% 29.81 in 7.0 mi NW 6.9 mph - 0.01 in   Overcast
11:54 PM 33.3 °F 25.7 °F 33.4 °F 100% 29.81 in 10.0 mi NW 9.2 mph - 0.01 in   Overcast